Location: Cadenet
(43.7345°N, 5.3750°E)
Time: 05:07:54
(UTC+00:00)

SKYMED 2 - Pass Details

Date: 18 February 2020
Orbit: 621 x 623 km, 97.9° (Epoch: 29 March)

Event Time Altitude Azimuth Distance (km) Brightness Sun altitude
Rises 05:04:43 0° 175° (S) 2,890 7.1 -16.7°
Reaches altitude 10° 05:06:55 10° 179° (S) 1,988 6.2 -16.3°
Maximum altitude 05:11:12 59° 259° (W) 724 3.6 -15.6°
Drops below altitude 10° 05:15:30 10° 340° (NNW) 2,004 5.9 -14.8°
Sets 05:17:44 0° 344° (NNW) 2,915 6.8 -14.4°
